Location: Table Rock
(44.3339°N, 118.3154°W)
Time: 17:59:40
(UTC-07:00)

Daily predictions for brighter satellites

Satellite Brightness Start Highest point End
(mag) Time Altitude Azimuth Time Altitude Azimuth Time Altitude Azimuth
Cosmos 676 Rocket 4.3 20:48:00 10° NNW 20:53:07 54° ENE 20:58:13 10° SE
Cosmos 909 Rocket 4.4 20:46:36 10° SSW 20:53:10 89° ESE 21:01:15 10° NE
Cosmos 1174 3.4 20:52:09 10° NNW 20:55:26 55° NE 20:58:23 10° SE
Cosmos 1862 4.3 20:52:40 10° SSE 20:56:14 30° E 20:59:49 10° NNE
Cosmos 1954 Rocket 4.5 20:52:44 10° N 20:57:45 46° ENE 21:02:47 10° SE
COS B Rocket 4.1 20:54:50 10° NNE 20:58:32 32° E 21:01:55 10° SSE
Cosmos 2056 Rocket 3.6 20:53:59 10° SSW 20:59:09 86° WNW 21:04:19 10° NNE
SPOT 5 3.7 20:56:05 10° SE 21:01:02 42° ENE 21:06:04 10° N
Cosmos 1674 Rocket 3.6 20:59:01 10° N 21:03:31 88° E 21:07:57 10° S
SL-27 R/B 3.1 21:01:00 10° NNW 21:04:36 57° WSW 21:08:07 10° S
Okean 3 4.3 21:00:55 10° N 21:04:52 34° ENE 21:08:45 10° SE
Cosmos 2074 Rocket 4.2 20:59:26 10° S 21:05:43 79° W 21:12:02 10° N
Okean 2 Rocket 4.3 21:03:37 10° SE 21:07:11 25° E 21:10:45 10° NE
Cosmos 1606 2.9 21:04:23 10° N 21:08:17 59° E 21:12:09 10° SSE
NOSS 2-2 (D) 4.3 21:07:28 10° SW 21:11:37 62° NW 21:16:33 10° NNE
Cosmos 1892 4.2 21:12:18 10° SSW 21:15:56 40° WNW 21:19:38 10° N
Sich 1 Rocket 3.6 21:12:39 10° S 21:17:14 82° E 21:21:51 10° N
Meteor 1-27 Rocket 3.7 21:13:54 10° N 21:19:30 81° E 21:25:01 10° SSE
Cosmos 1782 3.4 21:16:16 10° NNW 21:20:15 58° W 21:24:12 10° S
Cosmos 1782 Rocket 4.1 21:16:17 10° SSE 21:20:27 41° E 21:24:40 10° NNE
Nadezhda 3 Rocket 4.1 21:14:06 10° N 21:20:29 73° E 21:26:51 10° SSE
BREEZE-M DEB (TANK) 3.1 21:20:36 10° WSW 21:23:08 68° NNW 21:29:13 10° ENE
COSMOS 2487 2.7 21:19:42 10° NNW 21:23:18 59° ENE 21:26:19 14° SSE
Coronas F rocket 4.2 21:21:21 10° SW 21:23:24 20° WNW 21:25:28 10° NNW
Envisat 3.2 21:27:20 10° S 21:32:24 77° WSW 21:37:31 10° NNW
MetOp-B 4.2 21:27:42 11° SSE 21:32:49 66° ENE 21:38:08 10° N
Cosmos 1975 Rocket 3.1 21:29:40 10° N 21:33:58 59° E 21:37:35 14° SSE
Cosmos 1939 Rocket 3.4 21:30:42 10° S 21:34:30 55° W 21:38:23 10° NNW
APEX 4.3 21:32:05 10° S 21:35:37 33° ESE 21:40:05 10° NE
DNEPR-1 R/B 4.0 21:33:52 10° NNW 21:39:27 70° NE 21:42:52 18° SE
Cosmos 1420 Rocket 4.1 21:38:32 10° S 21:43:38 54° ESE 21:48:43 10° NNE
Cosmos 2084 3.1 21:40:14 10° SW 21:44:05 88° SE 21:47:56 10° NE
Cosmos 614 Rocket 4.2 21:40:04 10° NNW 21:45:04 52° ENE 21:48:30 19° SE
Cosmos 1908 Rocket 4.0 21:40:53 10° SSW 21:45:15 65° W 21:49:41 10° N
Cosmos 1378 Rocket 3.9 21:41:32 10° NNW 21:45:49 66° W 21:50:05 10° S
Cosmos 2341 Rocket 4.0 21:40:54 10° S 21:47:12 85° E 21:53:30 10° N
ERS-1 Rocket 4.4 21:45:09 10° SSW 21:49:45 36° W 21:54:24 10° NNW
deb Chang Zheng 4 4.2 21:46:19 10° N 21:50:41 60° WNW 21:55:03 10° SSW
ARGOS 3.3 21:46:44 18° SE 21:50:42 58° ENE 21:55:58 10° N
ATLAS 5 CENTAUR R/B 4.4 21:46:26 10° WNW 21:51:00 22° WSW 21:55:44 10° SSW
CZ-4 R/B 4.4 21:47:13 10° NNE 21:51:31 35° E 21:53:59 21° SSE
Cosmos 1140 Rocket 3.5 21:50:11 10° NNW 21:55:21 85° WSW 21:59:09 19° SSE
YAOGAN 6 2.5 21:53:07 20° S 21:55:28 84° WSW 21:59:01 10° NNW
UNK 4.4 21:50:07 10° NNE 21:56:21 72° ESE 22:02:17 10° S
Cosmos 1242 Rocket 2.5 21:53:01 10° N 21:56:42 86° E 21:58:57 22° SSE
H-2A R/B 3.0 21:53:53 19° ESE 21:57:02 36° ENE 22:01:51 10° N
Cosmos 1408 3.2 21:54:05 10° SSW 21:57:41 56° W 22:01:18 10° N
CZ-4 SHROUD 3.5 21:55:59 20° S 21:57:55 64° W 22:01:00 10° NNW
Timation 2 Rocket 3.8 21:54:06 10° NNW 22:00:08 88° WSW 22:04:20 21° SSE
SL-8 Rocket 4.0 21:54:45 11° S 22:00:47 66° E 22:06:59 10° NNE
USA 245 3.0 21:59:04 26° SSE 22:00:53 81° ENE 22:05:03 10° NNW
Cosmos 1452 Rocket 4.2 21:56:57 10° SW 22:02:08 57° WNW 22:07:21 10° NNE
PSLV R/B 3.8 22:00:21 20° SSW 22:02:09 48° W 22:05:03 10° NNW
Cosmos 1825 3.1 21:59:12 10° SSW 22:02:54 49° WNW 22:06:39 10° N
CZ-4B R/B 3.3 22:02:12 10° NNE 22:07:10 68° ESE 22:11:04 16° S
Cosmos 1184 Rocket 3.9 22:06:42 10° SSW 22:09:54 44° WNW 22:13:09 10° N
Cosmos 1833 Rocket 2.9 22:06:46 10° NNW 22:12:20 58° ENE 22:15:24 26° SE
SPOT 1/Viking Rocket 3.6 22:08:42 20° S 22:12:23 82° WSW 22:17:39 10° NNW
USA 234 3.9 22:07:02 10° ENE 22:12:41 31° SE 22:17:44 12° S
Cosmos 2151 Rocket 3.8 22:10:46 26° SSE 22:13:04 54° E 22:17:30 10° NNE
H-2A R/B 3.9 22:10:41 10° SSW 22:14:19 26° W 22:17:54 10° NW
Cosmos 2278 Rocket 2.7 22:10:00 10° SW 22:15:37 63° WNW 22:21:17 10° NNE
Landsat 7 4.0 22:15:00 29° SE 22:17:18 60° ENE 22:22:00 10° N
SL-8 R/B 4.5 22:17:24 10° W 22:22:08 53° N 22:26:51 10° ENE
Meteor 1-18 Rocket 4.4 22:17:09 10° N 22:23:02 68° ENE 22:26:13 28° SSE
ISS -2.9 22:19:49 10° WSW 22:23:03 62° NNW 22:26:17 10° NE
IGS 5A 4.1 22:23:39 33° ESE 22:24:53 42° ENE 22:28:49 10° N
Cosmos 1812 3.3 22:22:14 10° N 22:25:56 42° ENE 22:26:39 37° ESE
Meteor 1-14 Rocket 4.2 22:23:47 14° S 22:28:44 86° W 22:34:21 10° N
Cosmos 864 Rocket 4.4 22:27:09 21° S 22:31:21 76° E 22:37:30 10° N
Cosmos 1300 Rocket 4.2 22:32:04 34° ESE 22:32:42 36° E 22:36:47 10° NNE
Terra 2.0 22:31:14 36° SE 22:33:01 60° ENE 22:37:43 10° N
Cosmos 2082 Rocket 2.2 22:28:14 10° NNW 22:33:57 79° WSW 22:36:43 32° SSE
Okean 1 Rocket 3.8 22:35:20 33° ESE 22:35:50 34° E 22:39:53 10° NNE
SL-08 RB Rocket 4.0 22:33:34 28° S 22:35:54 64° WSW 22:40:31 10° NNW
Cosmos 2366 rocket 4.0 22:36:36 19° S 22:41:19 86° W 22:47:41 10° N
Okean 1-7 Rocket 4.1 22:39:27 10° N 22:43:46 43° ENE 22:44:34 39° ESE
Spot 4 4.0 22:42:41 40° SE 22:44:14 59° ENE 22:49:01 10° N
Cosmos 2297 4.1 22:45:12 10° SW 22:50:51 65° WNW 22:56:35 10° NNE
DMSP B5D2-2 4.0 22:49:08 10° NNE 22:54:21 73° ESE 22:56:18 39° S
Lacrosse 5 3.3 22:56:43 22° E 22:56:43 22° E 22:59:03 10° ENE
Meteor 1-11 Rocket 4.3 22:54:41 36° ESE 22:55:56 40° E 23:01:18 10° NNE
CZ-4C R/B 3.8 22:55:37 42° SSW 22:56:34 54° W 23:00:37 10° NNW
AVUM R/B 3.4 22:53:22 10° NNW 22:56:51 69° WSW 22:56:51 69° WSW
USA 229 DEB 3.9 22:54:10 10° NW 23:01:12 64° WSW 23:04:18 35° S
USA 229 3.9 22:54:16 10° NW 23:01:18 65° WSW 23:04:24 35° S
Spot 2 4.1 22:57:36 10° NNE 23:01:53 55° E 23:01:57 55° ESE
ASTEX 1 3.4 22:58:20 10° N 23:03:17 69° E 23:04:22 52° SSE
Cosmos 1331 Rocket 3.8 23:02:17 44° S 23:03:56 76° ESE 23:09:06 10° NNE
Gbstr 26 Del rocket 3.2 22:59:15 10° WNW 23:04:15 69° NNE 23:05:19 49° E
Cosmos 1400 Rocket 3.8 23:11:14 35° ENE 23:11:14 35° ENE 23:14:27 10° NNE
Cosmos 1110 Rocket 4.0 23:08:24 34° SSW 23:10:43 84° WNW 23:15:58 10° NNE
Cosmos 1536 4.1 23:12:06 29° ENE 23:12:06 29° ENE 23:14:52 10° NNE
CARTOSAT-1 4.2 23:12:58 41° SW 23:13:52 48° W 23:18:04 10° NNW
Timation 1 Rocket 4.3 23:10:38 23° SSW 23:14:30 84° WNW 23:20:34 10° NNE
Cosmos 1000 Rocket 4.4 23:09:28 10° N 23:15:44 76° E 23:17:46 46° SSE
NOSS 3-1 (A) 4.2 23:12:10 10° NNW 23:19:35 64° NE 23:23:39 32° ESE
Cosmos 2369 Rocket 2.9 23:23:58 35° E 23:23:58 35° E 23:28:44 10° NE
Meteor 1-19 Rocket 4.2 23:20:55 10° N 23:26:48 75° ENE 23:28:09 54° SSE
Cosmos 1356 4.4 23:28:08 42° NNE 23:28:08 42° NNE 23:30:38 10° NNE
Cosmos 1633 3.7 23:33:32 37° NE 23:33:32 37° NE 23:36:04 10° NNE
Okean 1 4.4 23:29:56 10° NNW 23:33:40 36° W 23:34:04 35° WSW
Cosmos 1354 Rocket 4.1 23:28:35 10° NNW 23:33:50 65° ENE 23:34:39 56° ESE
Cosmos 1486 Rocket 4.1 23:29:35 10° NNW 23:34:54 68° WSW 23:35:47 57° SSW
H-2A R/B 3.4 23:34:32 26° SW 23:36:26 33° W 23:41:13 10° NNW
Cosmos 1892 Rocket 3.9 23:34:17 10° N 23:38:22 52° ENE 23:38:22 52° ENE
ATLAS 2AS CENTAUR R/B 4.0 23:32:53 10° NNW 23:40:34 42° NE 23:46:07 18° E
Cosmos 2084 Rocket 4.1 23:44:43 10° NNW 23:48:19 43° NE 23:48:19 43° NE
NOSS 3-1 (C) 4.0 23:42:15 10° NW 23:49:47 79° SW 23:52:31 46° SSE
Meteor 1-5 Rocket 4.3 23:54:20 51° E 23:54:25 51° E 23:59:34 10° NNE
Cosmos 1833 Rocket 4.3 23:51:37 10° NW 23:55:47 22° W 23:57:06 20° WSW
